Time,TemperatureF,DewpointF,PressureIn,WindDirection,WindDirectionDegrees,WindSpeedMPH,WindSpeedGustMPH,Humidity,HourlyPrecipIn,Conditions,Clouds,dailyrainin,SoftwareType,DateUTC
2013-11-18 00:00:00,59.6,43.8,30.06,ENE,68,4.0,4.0,56,0.00,,,0.00,WUHU216HW,2013-11-18 07:00:00,
2013-11-18 00:05:00,59.4,43.7,30.06,ESE,113,4.0,4.3,56,0.00,,,0.00,WUHU216HW,2013-11-18 07:05:00,
2013-11-18 00:10:00,59.4,43.7,30.06,ESE,113,4.0,4.3,56,0.00,,,0.00,WUHU216HW,2013-11-18 07:10:00,
2013-11-18 00:31:00,58.9,44.1,30.05,ENE,68,3.1,3.1,58,0.00,,,0.00,WUHU216HW,2013-11-18 07:31:00,
2013-11-18 00:36:00,58.9,44.1,30.05,ENE,68,4.9,4.9,58,0.00,,,0.00,WUHU216HW,2013-11-18 07:36:00,
2013-11-18 00:41:00,58.9,44.1,30.05,ENE,68,4.9,4.9,58,0.00,,,0.00,WUHU216HW,2013-11-18 07:41:00,
2013-11-18 01:00:00,58.9,44.1,30.06,West,270,2.7,2.7,58,0.00,,,0.00,WUHU216HW,2013-11-18 08:00:00,
2013-11-18 01:05:00,58.9,44.1,30.06,West,270,2.2,2.7,58,0.00,,,0.00,WUHU216HW,2013-11-18 08:05:00,
2013-11-18 01:10:00,58.9,44.1,30.06,West,270,2.2,2.5,58,0.00,,,0.00,WUHU216HW,2013-11-18 08:10:00,
2013-11-18 01:30:00,58.1,42.9,30.05,NW,315,0.4,0.4,57,0.00,,,0.00,WUHU216HW,2013-11-18 08:30:00,
2013-11-18 01:35:00,58.0,42.9,30.05,NW,315,0.7,0.7,57,0.00,,,0.00,WUHU216HW,2013-11-18 08:35:00,
2013-11-18 01:40:00,58.0,42.9,30.05,NW,315,0.7,0.7,57,0.00,,,0.00,WUHU216HW,2013-11-18 08:40:00,
2013-11-18 02:00:00,57.6,42.9,30.05,NNW,338,1.8,1.8,58,0.00,,,0.00,WUHU216HW,2013-11-18 09:00:00,
2013-11-18 02:05:00,57.6,42.9,30.05,NNW,338,1.6,1.8,58,0.00,,,0.00,WUHU216HW,2013-11-18 09:05:00,
2013-11-18 02:10:00,57.6,42.9,30.05,NNW,338,1.6,1.8,58,0.00,,,0.00,WUHU216HW,2013-11-18 09:10:00,
2013-11-18 02:30:00,57.8,43.6,30.05,NW,315,1.8,1.8,59,0.00,,,0.00,WUHU216HW,2013-11-18 09:30:00,
2013-11-18 02:35:00,57.8,43.6,30.04,NNW,338,1.3,2.2,59,0.00,,,0.00,WUHU216HW,2013-11-18 09:35:00,
2013-11-18 02:40:00,57.8,43.6,30.04,NNW,338,1.3,2.2,59,0.00,,,0.00,WUHU216HW,2013-11-18 09:40:00,
2013-11-18 03:00:00,57.6,43.9,30.04,NE,45,1.1,1.1,60,0.00,,,0.00,WUHU216HW,2013-11-18 10:00:00,
2013-11-18 03:05:00,57.6,43.9,30.04,NE,45,1.8,2.0,60,0.00,,,0.00,WUHU216HW,2013-11-18 10:05:00,
2013-11-18 03:10:00,57.6,43.9,30.04,NE,45,1.8,2.0,60,0.00,,,0.00,WUHU216HW,2013-11-18 10:10:00,
2013-11-18 03:30:00,56.9,43.2,30.03,North,0,0.4,0.4,60,0.00,,,0.00,WUHU216HW,2013-11-18 10:30:00,
2013-11-18 03:35:00,56.9,43.2,30.03,North,0,0.7,0.7,60,0.00,,,0.00,WUHU216HW,2013-11-18 10:35:00,
2013-11-18 03:40:00,56.9,43.2,30.03,North,0,0.7,0.7,60,0.00,,,0.00,WUHU216HW,2013-11-18 10:40:00,
2013-11-18 04:00:00,56.3,43.0,30.03,NE,45,1.3,1.3,61,0.00,,,0.00,WUHU216HW,2013-11-18 11:00:00,
2013-11-18 04:05:00,56.3,43.0,30.03,ENE,68,1.6,1.8,61,0.00,,,0.00,WUHU216HW,2013-11-18 11:05:00,
2013-11-18 04:10:00,56.3,43.0,30.03,ENE,68,1.6,1.8,61,0.00,,,0.00,WUHU216HW,2013-11-18 11:10:00,
2013-11-18 04:31:00,56.0,43.1,30.02,East,90,4.7,4.7,62,0.00,,,0.00,WUHU216HW,2013-11-18 11:31:00,
2013-11-18 04:35:00,56.0,43.1,30.02,East,90,3.8,6.3,62,0.00,,,0.00,WUHU216HW,2013-11-18 11:35:00,
2013-11-18 04:40:00,56.0,43.1,30.02,East,90,3.8,6.3,62,0.00,,,0.00,WUHU216HW,2013-11-18 11:40:00,
2013-11-18 05:00:00,55.3,43.3,30.03,SE,135,4.0,4.0,64,0.00,,,0.00,WUHU216HW,2013-11-18 12:00:00,
2013-11-18 05:05:00,55.3,43.3,30.03,SE,135,3.4,4.0,64,0.00,,,0.00,WUHU216HW,2013-11-18 12:05:00,
2013-11-18 05:10:00,55.3,43.3,30.03,SE,135,3.4,4.0,64,0.00,,,0.00,WUHU216HW,2013-11-18 12:10:00,
2013-11-18 05:31:00,54.7,43.1,30.03,ENE,68,2.2,2.2,65,0.00,,,0.00,WUHU216HW,2013-11-18 12:31:00,
2013-11-18 05:36:00,54.7,43.1,30.03,ESE,113,1.8,2.7,65,0.00,,,0.00,WUHU216HW,2013-11-18 12:36:00,
2013-11-18 05:41:00,54.7,43.1,30.03,ESE,113,1.8,2.7,65,0.00,,,0.00,WUHU216HW,2013-11-18 12:41:00,
2013-11-18 06:00:00,54.4,43.2,30.04,ESE,113,1.6,1.6,66,0.00,,,0.00,WUHU216HW,2013-11-18 13:00:00,
2013-11-18 06:05:00,54.4,43.2,30.04,East,90,1.8,2.0,66,0.00,,,0.00,WUHU216HW,2013-11-18 13:05:00,
2013-11-18 06:10:00,54.4,43.2,30.04,East,90,1.8,2.0,66,0.00,,,0.00,WUHU216HW,2013-11-18 13:10:00,
2013-11-18 06:31:00,55.1,43.5,30.03,East,90,2.7,2.7,65,0.00,,,0.00,WUHU216HW,2013-11-18 13:31:00,
2013-11-18 06:36:00,55.1,43.5,30.03,East,90,3.1,3.4,65,0.00,,,0.00,WUHU216HW,2013-11-18 13:36:00,
2013-11-18 06:41:00,55.1,43.5,30.03,East,90,3.1,3.4,65,0.00,,,0.00,WUHU216HW,2013-11-18 13:41:00,
2013-11-18 07:00:00,54.7,43.6,30.04,East,90,2.7,2.7,66,0.00,,,0.00,WUHU216HW,2013-11-18 14:00:00,
2013-11-18 07:05:00,54.7,43.1,30.04,ESE,113,2.5,2.7,65,0.00,,,0.00,WUHU216HW,2013-11-18 14:05:00,
2013-11-18 07:10:00,54.7,43.1,30.04,ESE,113,2.5,2.7,65,0.00,,,0.00,WUHU216HW,2013-11-18 14:10:00,
2013-11-18 07:30:00,54.9,43.3,30.05,SSW,203,0.2,0.2,65,0.00,,,0.00,WUHU216HW,2013-11-18 14:30:00,
2013-11-18 07:35:00,54.9,43.8,30.05,West,270,2.0,2.0,66,0.00,,,0.00,WUHU216HW,2013-11-18 14:35:00,
2013-11-18 07:40:00,54.9,43.8,30.05,West,270,2.0,2.0,66,0.00,,,0.00,WUHU216HW,2013-11-18 14:40:00,
2013-11-18 08:00:00,56.5,44.5,30.06,South,180,1.1,1.1,64,0.00,,,0.00,WUHU216HW,2013-11-18 15:00:00,
2013-11-18 08:05:00,56.5,44.5,30.06,South,180,1.1,1.1,64,0.00,,,0.00,WUHU216HW,2013-11-18 15:05:00,
2013-11-18 08:10:00,56.5,44.5,30.06,South,180,1.1,1.1,64,0.00,,,0.00,WUHU216HW,2013-11-18 15:10:00,
2013-11-18 08:30:00,57.8,45.3,30.06,SE,135,1.3,1.3,63,0.00,,,0.00,WUHU216HW,2013-11-18 15:30:00,
2013-11-18 08:35:00,57.8,45.3,30.06,ESE,113,3.8,3.8,63,0.00,,,0.00,WUHU216HW,2013-11-18 15:35:00,
2013-11-18 08:40:00,57.8,45.3,30.06,ESE,113,3.8,3.8,63,0.00,,,0.00,WUHU216HW,2013-11-18 15:40:00,
2013-11-18 09:00:00,59.4,46.0,30.06,SE,135,3.4,3.4,61,0.00,,,0.00,WUHU216HW,2013-11-18 16:00:00,
2013-11-18 09:05:00,59.4,46.0,30.06,SE,135,3.4,3.4,61,0.00,,,0.00,WUHU216HW,2013-11-18 16:05:00,
2013-11-18 09:10:00,59.4,46.0,30.06,SE,135,3.4,3.4,61,0.00,,,0.00,WUHU216HW,2013-11-18 16:10:00,
2013-11-18 09:30:00,61.0,47.2,30.07,South,180,3.1,3.1,60,0.00,,,0.00,WUHU216HW,2013-11-18 16:30:00,
2013-11-18 09:35:00,61.0,46.6,30.07,South,180,3.4,4.7,59,0.00,,,0.00,WUHU216HW,2013-11-18 16:35:00,
2013-11-18 09:40:00,61.0,46.6,30.07,South,180,3.4,4.7,59,0.00,,,0.00,WUHU216HW,2013-11-18 16:40:00,
2013-11-18 10:00:00,63.9,46.8,30.07,SW,225,4.3,4.3,54,0.00,,,0.00,WUHU216HW,2013-11-18 17:00:00,
2013-11-18 10:05:00,63.9,46.8,30.07,SW,225,2.9,4.3,54,0.00,,,0.00,WUHU216HW,2013-11-18 17:05:00,
2013-11-18 10:10:00,63.9,46.8,30.07,SW,225,2.9,4.3,54,0.00,,,0.00,WUHU216HW,2013-11-18 17:10:00,
2013-11-18 10:30:00,65.3,46.3,30.07,South,180,3.8,3.8,50,0.00,,,0.00,WUHU216HW,2013-11-18 17:30:00,
2013-11-18 10:35:00,65.3,46.3,30.07,SE,135,2.0,3.8,50,0.00,,,0.00,WUHU216HW,2013-11-18 17:35:00,
2013-11-18 10:40:00,65.3,46.3,30.07,SE,135,2.0,3.8,50,0.00,,,0.00,WUHU216HW,2013-11-18 17:40:00,
2013-11-18 11:00:00,67.3,47.0,30.07,SW,225,4.7,4.7,48,0.00,,,0.00,WUHU216HW,2013-11-18 18:00:00,
2013-11-18 11:05:00,67.3,46.4,30.07,WNW,293,3.8,4.7,47,0.00,,,0.00,WUHU216HW,2013-11-18 18:05:00,
2013-11-18 11:10:00,67.3,46.4,30.07,WNW,293,3.8,4.7,47,0.00,,,0.00,WUHU216HW,2013-11-18 18:10:00,
2013-11-18 11:31:00,68.8,47.1,30.06,West,270,4.7,4.7,46,0.00,,,0.00,WUHU216HW,2013-11-18 18:31:00,
2013-11-18 11:36:00,68.9,47.3,30.06,NW,315,3.4,4.7,46,0.00,,,0.00,WUHU216HW,2013-11-18 18:36:00,
2013-11-18 11:41:00,68.9,47.3,30.06,NW,315,3.4,3.6,46,0.00,,,0.00,WUHU216HW,2013-11-18 18:41:00,
2013-11-18 11:59:00,71.3,47.5,30.05,SW,225,4.0,4.0,43,0.00,,,0.00,WUHU216HW,2013-11-18 18:59:00,
2013-11-18 12:04:00,71.3,47.5,30.05,NW,315,5.6,5.6,43,0.00,,,0.00,WUHU216HW,2013-11-18 19:04:00,
2013-11-18 12:09:00,71.3,47.5,30.05,NW,315,5.6,5.6,43,0.00,,,0.00,WUHU216HW,2013-11-18 19:09:00,
2013-11-18 12:30:00,73.4,47.7,30.04,West,270,6.3,6.3,40,0.00,,,0.00,WUHU216HW,2013-11-18 19:30:00,
2013-11-18 12:35:00,73.4,47.7,30.04,WSW,248,3.4,6.3,40,0.00,,,0.00,WUHU216HW,2013-11-18 19:35:00,
2013-11-18 12:40:00,73.4,47.7,30.04,WSW,248,3.4,5.8,40,0.00,,,0.00,WUHU216HW,2013-11-18 19:40:00,
2013-11-18 12:59:00,74.3,47.0,30.03,SW,225,8.9,8.9,38,0.00,,,0.00,WUHU216HW,2013-11-18 19:59:00,
2013-11-18 13:04:00,74.3,47.0,30.03,WNW,293,9.6,9.6,38,0.00,,,0.00,WUHU216HW,2013-11-18 20:04:00,
2013-11-18 13:09:00,74.3,47.0,30.03,WNW,293,9.6,9.6,38,0.00,,,0.00,WUHU216HW,2013-11-18 20:09:00,
2013-11-18 13:30:00,76.0,47.7,30.02,SSW,203,7.4,7.4,37,0.00,,,0.00,WUHU216HW,2013-11-18 20:30:00,
2013-11-18 13:35:00,76.0,46.2,30.02,SW,225,8.7,8.7,35,0.00,,,0.00,WUHU216HW,2013-11-18 20:35:00,
2013-11-18 13:40:00,76.0,46.2,30.02,SW,225,8.7,8.7,35,0.00,,,0.00,WUHU216HW,2013-11-18 20:40:00,
2013-11-18 14:00:00,77.0,45.6,30.02,SW,225,7.6,7.6,33,0.00,,,0.00,WUHU216HW,2013-11-18 21:00:00,
2013-11-18 14:05:00,77.0,45.6,30.02,West,270,6.3,7.6,33,0.00,,,0.00,WUHU216HW,2013-11-18 21:05:00,
2013-11-18 14:10:00,77.0,45.6,30.02,West,270,6.3,7.6,33,0.00,,,0.00,WUHU216HW,2013-11-18 21:10:00,
2013-11-18 14:30:00,77.4,46.0,30.02,East,90,1.3,1.3,33,0.00,,,0.00,WUHU216HW,2013-11-18 21:30:00,
2013-11-18 14:31:00,77.4,46.0,30.02,ESE,113,1.1,1.1,33,0.00,,,0.00,WUHU216HW,2013-11-18 21:31:00,
2013-11-18 14:35:00,77.4,46.0,30.02,ESE,113,1.1,1.3,33,0.00,,,0.00,WUHU216HW,2013-11-18 21:35:00,
2013-11-18 14:40:00,77.4,46.0,30.02,ESE,113,1.1,1.3,33,0.00,,,0.00,WUHU216HW,2013-11-18 21:40:00,
2013-11-18 15:00:00,77.4,45.2,30.01,SW,225,6.5,6.5,32,0.00,,,0.00,WUHU216HW,2013-11-18 22:00:00,
2013-11-18 15:05:00,77.4,45.2,30.01,SW,225,5.6,6.5,32,0.00,,,0.00,WUHU216HW,2013-11-18 22:05:00,
2013-11-18 15:10:00,77.4,45.2,30.01,SW,225,5.6,6.5,32,0.00,,,0.00,WUHU216HW,2013-11-18 22:10:00,
2013-11-18 15:30:00,77.9,45.6,30.01,NW,315,5.4,5.4,32,0.00,,,0.00,WUHU216HW,2013-11-18 22:30:00,
2013-11-18 15:31:00,77.9,45.6,30.01,WSW,248,4.7,4.7,32,0.00,,,0.00,WUHU216HW,2013-11-18 22:31:00,
2013-11-18 15:35:00,77.9,45.6,30.01,WSW,248,4.7,5.4,32,0.00,,,0.00,WUHU216HW,2013-11-18 22:35:00,
2013-11-18 15:40:00,77.9,45.6,30.01,WSW,248,4.7,5.4,32,0.00,,,0.00,WUHU216HW,2013-11-18 22:40:00,
2013-11-18 16:00:00,76.9,45.5,30.01,West,270,7.2,7.2,33,0.00,,,0.00,WUHU216HW,2013-11-18 23:00:00,
2013-11-18 16:05:00,76.9,45.5,30.01,SSW,203,4.9,7.2,33,0.00,,,0.00,WUHU216HW,2013-11-18 23:05:00,
2013-11-18 16:10:00,76.9,45.5,30.01,SSW,203,4.9,6.3,33,0.00,,,0.00,WUHU216HW,2013-11-18 23:10:00,
2013-11-18 16:31:00,76.3,45.0,30.01,WNW,293,3.1,3.1,33,0.00,,,0.00,WUHU216HW,2013-11-18 23:31:00,
2013-11-18 16:35:00,76.1,44.8,30.01,WNW,293,4.5,4.5,33,0.00,,,0.00,WUHU216HW,2013-11-18 23:35:00,
2013-11-18 16:40:00,76.1,44.8,30.01,WNW,293,4.5,4.5,33,0.00,,,0.00,WUHU216HW,2013-11-18 23:40:00,
2013-11-18 17:00:00,75.1,43.8,30.02,West,270,3.4,3.4,33,0.00,,,0.00,WUHU216HW,2013-11-19 00:00:00,
2013-11-18 17:05:00,74.9,43.8,30.02,West,270,2.5,3.4,33,0.00,,,0.00,WUHU216HW,2013-11-19 00:05:00,
2013-11-18 17:10:00,74.9,43.8,30.02,West,270,2.5,2.5,33,0.00,,,0.00,WUHU216HW,2013-11-19 00:10:00,
2013-11-18 17:31:00,72.0,44.2,30.01,WNW,293,4.7,4.7,37,0.00,,,0.00,WUHU216HW,2013-11-19 00:31:00,
2013-11-18 17:35:00,71.8,44.0,30.01,NW,315,5.4,6.3,37,0.00,,,0.00,WUHU216HW,2013-11-19 00:35:00,
2013-11-18 17:40:00,71.8,44.0,30.01,NW,315,5.4,6.3,37,0.00,,,0.00,WUHU216HW,2013-11-19 00:40:00,
2013-11-18 18:00:00,69.8,45.1,30.01,WNW,293,5.4,5.4,41,0.00,,,0.00,WUHU216HW,2013-11-19 01:00:00,
2013-11-18 18:05:00,69.8,45.1,30.01,West,270,6.3,6.3,41,0.00,,,0.00,WUHU216HW,2013-11-19 01:05:00,
2013-11-18 18:10:00,69.8,45.1,30.01,West,270,6.3,6.3,41,0.00,,,0.00,WUHU216HW,2013-11-19 01:10:00,
2013-11-18 18:31:00,68.9,44.8,30.01,NNW,338,4.3,4.3,42,0.00,,,0.00,WUHU216HW,2013-11-19 01:31:00,
2013-11-18 18:36:00,68.9,44.8,30.01,NW,315,5.4,5.4,42,0.00,,,0.00,WUHU216HW,2013-11-19 01:36:00,
2013-11-18 18:41:00,68.9,44.8,30.01,NW,315,5.4,5.4,42,0.00,,,0.00,WUHU216HW,2013-11-19 01:41:00,
2013-11-18 19:00:00,68.0,43.5,30.01,NE,45,2.7,2.7,41,0.00,,,0.00,WUHU216HW,2013-11-19 02:00:00,
2013-11-18 19:05:00,68.0,43.5,30.01,NNW,338,5.4,5.8,41,0.00,,,0.00,WUHU216HW,2013-11-19 02:05:00,
2013-11-18 19:10:00,68.0,43.5,30.01,NNW,338,5.4,5.8,41,0.00,,,0.00,WUHU216HW,2013-11-19 02:10:00,
2013-11-18 19:31:00,67.3,41.5,30.01,East,90,1.3,1.3,39,0.00,,,0.00,WUHU216HW,2013-11-19 02:31:00,
2013-11-18 19:36:00,67.3,42.2,30.01,ENE,68,1.8,1.8,40,0.00,,,0.00,WUHU216HW,2013-11-19 02:36:00,
2013-11-18 19:41:00,67.3,42.2,30.01,ENE,68,1.8,1.8,40,0.00,,,0.00,WUHU216HW,2013-11-19 02:41:00,
2013-11-18 20:00:00,67.0,41.1,30.01,ENE,68,3.1,3.1,39,0.00,,,0.00,WUHU216HW,2013-11-19 03:00:00,
2013-11-18 20:05:00,66.8,41.0,30.01,NE,45,2.5,3.1,39,0.00,,,0.00,WUHU216HW,2013-11-19 03:05:00,
2013-11-18 20:10:00,66.8,41.0,30.01,NE,45,2.5,3.1,39,0.00,,,0.00,WUHU216HW,2013-11-19 03:10:00,
2013-11-18 20:31:00,65.0,40.7,30.02,North,0,0.4,0.4,41,0.00,,,0.00,WUHU216HW,2013-11-19 03:31:00,
2013-11-18 20:36:00,65.0,40.7,30.02,North,0,0.4,0.4,41,0.00,,,0.00,WUHU216HW,2013-11-19 03:36:00,
2013-11-18 21:00:00,64.3,40.6,30.02,WSW,248,1.8,1.8,42,0.00,,,0.00,WUHU216HW,2013-11-19 04:00:00,
2013-11-18 21:05:00,64.3,40.6,30.02,West,270,2.2,2.5,42,0.00,,,0.00,WUHU216HW,2013-11-19 04:05:00,
2013-11-18 21:07:00,64.3,40.6,30.02,West,270,2.2,2.5,42,0.00,,,0.00,WUHU216HW,2013-11-19 04:07:00,
2013-11-18 21:32:00,63.2,40.2,30.03,NNW,338,1.8,1.8,43,0.00,,,0.00,WUHU216HW,2013-11-19 04:32:00,
2013-11-18 21:37:00,63.2,40.2,30.03,NNW,338,1.1,1.8,43,0.00,,,0.00,WUHU216HW,2013-11-19 04:37:00,
2013-11-18 21:41:00,63.2,40.2,30.03,NNW,338,1.1,1.6,43,0.00,,,0.00,WUHU216HW,2013-11-19 04:41:00,
2013-11-18 22:00:00,61.9,40.8,30.03,NE,45,2.9,2.9,46,0.00,,,0.00,WUHU216HW,2013-11-19 05:00:00,
2013-11-18 22:01:00,61.9,40.8,30.04,NE,45,2.7,2.9,46,0.00,,,0.00,WUHU216HW,2013-11-19 05:01:00,
2013-11-18 22:06:00,61.9,40.8,30.04,NE,45,2.7,2.9,46,0.00,,,0.00,WUHU216HW,2013-11-19 05:06:00,
2013-11-18 22:30:00,62.3,41.1,30.04,North,0,0.9,0.9,46,0.00,,,0.00,WUHU216HW,2013-11-19 05:30:00,
2013-11-18 22:35:00,62.3,41.1,30.04,ESE,113,0.9,0.9,46,0.00,,,0.00,WUHU216HW,2013-11-19 05:35:00,
2013-11-18 22:41:00,62.3,41.1,30.04,ESE,113,0.9,0.9,46,0.00,,,0.00,WUHU216HW,2013-11-19 05:41:00,
2013-11-18 22:59:00,61.6,41.0,30.03,East,90,1.8,1.8,47,0.00,,,0.00,WUHU216HW,2013-11-19 05:59:00,
2013-11-18 23:04:00,61.6,41.0,30.03,ESE,113,3.4,3.4,47,0.00,,,0.00,WUHU216HW,2013-11-19 06:04:00,
2013-11-18 23:09:00,61.6,41.0,30.03,ESE,113,3.4,3.4,47,0.00,,,0.00,WUHU216HW,2013-11-19 06:09:00,
2013-11-18 23:30:00,59.9,40.8,30.03,ESE,113,4.7,4.7,49,0.00,,,0.00,WUHU216HW,2013-11-19 06:30:00,
2013-11-18 23:35:00,59.9,41.3,30.03,East,90,4.7,5.4,50,0.00,,,0.00,WUHU216HW,2013-11-19 06:35:00,
2013-11-18 23:40:00,59.9,41.3,30.03,East,90,4.7,5.4,50,0.00,,,0.00,WUHU216HW,2013-11-19 06:40:00,
2013-11-18 23:59:00,59.4,42.2,30.03,SE,135,5.8,5.8,53,0.00,,,0.00,WUHU216HW,2013-11-19 06:59:00,